| time (UTC) | temp F | wind direction | speed knots | gust knots | rain 1hr in | rain 24hr in | rain mn in | humidity % | barometer mb |
| 20260507040339 | 65 | 293 | 3.5 | 7.0 | 0.00 | 0.00 | 0.00 | 67 | 1017.1 |
| 20260507040059 | 65 | 281 | 3.5 | 7.8 | 0.00 | 0.00 | 0.00 | 67 | 1017.0 |
| 20260507034607 | 65 | 281 | 3.5 | 7.8 | 0.00 | 0.00 | 0.00 | 66 | 1016.8 |
| 20260507033055 | 66 | 221 | 3.5 | 9.6 | 0.00 | 0.00 | 0.00 | 65 | 1016.6 |
| 20260507033025 | 66 | 0 | 3.5 | 7.8 | 0.00 | 0.00 | 0.00 | 65 | 1016.6 |
| 20260507032008 | 67 | 0 | 3.5 | 9.6 | 0.00 | 0.00 | 0.00 | 65 | 1016.6 |
| 20260507031559 | 66 | 213 | 4.3 | 10.4 | 0.00 | 0.00 | 0.00 | 65 | 1016.5 |
| 20260507025824 | 67 | 186 | 4.3 | 8.7 | 0.00 | 0.00 | 0.00 | 64 | 1016.3 |
| 20260507024817 | 68 | 0 | 3.5 | 7.8 | 0.00 | 0.00 | 0.00 | 63 | 1016.2 |
| 20260507024604 | 67 | 275 | 4.3 | 8.7 | 0.00 | 0.00 | 0.00 | 62 | 1016.1 |
| 20260507023757 | 68 | 0 | 4.3 | 10.4 | 0.00 | 0.00 | 0.00 | 62 | 1016.1 |
| 20260507023113 | 68 | 215 | 5.2 | 12.2 | 0.00 | 0.00 | 0.00 | 61 | 1015.9 |
| 20260507021557 | 69 | 207 | 5.2 | 10.4 | 0.00 | 0.00 | 0.00 | 60 | 1015.8 |
| 20260507020456 | 70 | 0 | 4.3 | 10.4 | 0.00 | 0.00 | 0.00 | 59 | 1015.7 |
| 20260507020059 | 70 | 193 | 5.2 | 12.2 | 0.00 | 0.00 | 0.00 | 58 | 1015.7 |
| 20260507014607 | 71 | 360 | 3.5 | 9.6 | 0.00 | 0.00 | 0.00 | 57 | 1015.6 |
| 20260507014331 | 72 | 215 | 4.3 | 8.7 | 0.00 | 0.00 | 0.00 | 56 | 1015.5 |
| 20260507013305 | 73 | 280 | 4.3 | 9.6 | 0.00 | 0.00 | 0.00 | 55 | 1015.5 |
| 20260507013114 | 72 | 217 | 3.5 | 10.4 | 0.00 | 0.00 | 0.00 | 55 | 1015.5 |
| 20260507012317 | 73 | 211 | 4.3 | 10.4 | 0.00 | 0.00 | 0.00 | 54 | 1015.4 |
| 20260507011559 | 73 | 279 | 4.3 | 11.3 | 0.00 | 0.00 | 0.00 | 54 | 1015.4 |
| 20260507011301 | 74 | 0 | 5.2 | 10.4 | 0.00 | 0.00 | 0.00 | 53 | 1015.4 |
| 20260507010316 | 74 | 0 | 5.2 | 9.6 | 0.00 | 0.00 | 0.00 | 52 | 1015.2 |
| 20260507010057 | 74 | 185 | 6.1 | 12.2 | 0.00 | 0.00 | 0.00 | 52 | 1015.3 |
| 20260507004559 | 74 | 284 | 4.3 | 11.3 | 0.00 | 0.00 | 0.00 | 52 | 1015.2 |
| 20260507004202 | 75 | 263 | 5.2 | 10.4 | 0.00 | 0.00 | 0.00 | 52 | 1015.2 |
| 20260507003205 | 75 | 202 | 5.2 | 13.0 | 0.00 | 0.00 | 0.00 | 52 | 1015.1 |
| 20260507003057 | 74 | 180 | 6.1 | 13.0 | 0.00 | 0.00 | 0.00 | 52 | 1015.2 |
| 20260507002201 | 75 | 251 | 7.8 | 13.0 | 0.00 | 0.00 | 0.00 | 52 | 1015.1 |
| 20260507001623 | 75 | 278 | 8.7 | 13.0 | 0.00 | 0.00 | 0.00 | 51 | 1015.1 |
| 20260507001156 | 75 | 217 | 7.0 | 13.9 | 0.00 | 0.00 | 0.00 | 51 | 1015.1 |
| 20260507000220 | 76 | 217 | 6.1 | 13.9 | 0.00 | 0.00 | 0.00 | 51 | 1015.0 |
| 20260506235214 | 76 | 214 | 5.2 | 9.6 | 0.00 | 0.00 | 0.00 | 51 | 1014.9 |
| 20260506234559 | 76 | 192 | 6.1 | 13.0 | 0.00 | 0.00 | 0.00 | 50 | 1014.9 |
| 20260506234159 | 76 | 215 | 5.2 | 9.6 | 0.00 | 0.00 | 0.00 | 51 | 1014.8 |
| 20260506233152 | 77 | 229 | 6.1 | 10.4 | 0.00 | 0.00 | 0.00 | 50 | 1014.8 |
| 20260506233109 | 76 | 215 | 6.1 | 13.9 | 0.00 | 0.00 | 0.00 | 50 | 1014.9 |
| 20260506232157 | 76 | 184 | 5.2 | 10.4 | 0.00 | 0.00 | 0.00 | 49 | 1014.9 |
| 20260506231604 | 76 | 192 | 5.2 | 13.0 | 0.00 | 0.00 | 0.00 | 50 | 1015.0 |
| 20260506231145 | 77 | 192 | 7.0 | 12.2 | 0.00 | 0.00 | 0.00 | 49 | 1015.0 |
| 20260506230203 | 77 | 175 | 6.1 | 12.2 | 0.00 | 0.00 | 0.00 | 49 | 1014.9 |
| 20260506230058 | 77 | 175 | 7.0 | 13.0 | 0.00 | 0.00 | 0.00 | 48 | 1014.9 |
| 20260506225147 | 78 | 273 | 5.2 | 11.3 | 0.00 | 0.00 | 0.00 | 48 | 1015.0 |
| 20260506224604 | 78 | 277 | 7.0 | 12.2 | 0.00 | 0.00 | 0.00 | 48 | 1015.0 |
| 20260506224156 | 79 | 282 | 3.5 | 12.2 | 0.00 | 0.00 | 0.00 | 46 | 1015.1 |
| 20260506223125 | 79 | 296 | 5.2 | 13.0 | 0.00 | 0.00 | 0.00 | 45 | 1015.3 |
| 20260506221603 | 78 | 336 | 6.1 | 12.2 | 0.00 | 0.00 | 0.00 | 45 | 1015.4 |
| 20260506220056 | 78 | 319 | 4.3 | 12.2 | 0.00 | 0.00 | 0.00 | 45 | 1015.6 |
| 20260506215721 | 78 | 208 | 3.5 | 11.3 | 0.00 | 0.00 | 0.00 | 46 | 1015.8 |
| 20260506214705 | 78 | 230 | 3.5 | 9.6 | 0.00 | 0.00 | 0.00 | 46 | 1015.9 |
| 20260506214608 | 77 | 360 | 4.3 | 10.4 | 0.00 | 0.00 | 0.00 | 46 | 1015.9 |
| 20260506213107 | 77 | 281 | 7.0 | 15.6 | 0.00 | 0.00 | 0.00 | 46 | 1016.1 |
| 20260506212516 | 77 | 285 | 4.3 | 12.2 | 0.00 | 0.00 | 0.00 | 47 | 1016.3 |
| 20260506211557 | 76 | 329 | 6.1 | 13.0 | 0.00 | 0.00 | 0.00 | 48 | 1016.2 |
| 20260506211525 | 77 | 302 | 3.5 | 12.2 | 0.00 | 0.00 | 0.00 | 48 | 1016.2 |
| 20260506210535 | 77 | 326 | 5.2 | 12.2 | 0.00 | 0.00 | 0.00 | 47 | 1016.4 |
| 20260506210118 | 76 | 289 | 7.0 | 13.9 | 0.00 | 0.00 | 0.00 | 47 | 1016.4 |
| 20260506205501 | 77 | 270 | 3.5 | 12.2 | 0.00 | 0.00 | 0.00 | 48 | 1016.5 |
| 20260506204556 | 76 | 350 | 5.2 | 11.3 | 0.00 | 0.00 | 0.00 | 50 | 1016.5 |
| 20260506203307 | 75 | 304 | 3.5 | 10.4 | 0.00 | 0.00 | 0.00 | 51 | 1016.7 |
| 20260506203101 | 75 | 294 | 5.2 | 10.4 | 0.00 | 0.00 | 0.00 | 49 | 1016.7 |
| 20260506201602 | 74 | 360 | 6.1 | 12.2 | 0.00 | 0.00 | 0.00 | 50 | 1016.8 |
| 20260506201114 | 74 | 212 | 1.7 | 7.8 | 0.00 | 0.00 | 0.00 | 51 | 1016.8 |
| 20260506200143 | 74 | 267 | 3.5 | 9.6 | 0.00 | 0.00 | 0.00 | 50 | 1017.0 |
| 20260506200126 | 74 | 275 | 3.5 | 7.8 | 0.00 | 0.00 | 0.00 | 50 | 1016.9 |
| 20260506195135 | 73 | 5 | 1.7 | 6.1 | 0.00 | 0.00 | 0.00 | 52 | 1017.1 |
| 20260506194615 | 72 | 211 | 2.6 | 7.0 | 0.00 | 0.00 | 0.00 | 53 | 1017.3 |
| 20260506194200 | 73 | 178 | 2.6 | 5.2 | 0.00 | 0.00 | 0.00 | 51 | 1017.3 |
| 20260506193204 | 72 | 328 | 0.9 | 7.8 | 0.00 | 0.00 | 0.00 | 53 | 1017.4 |
| 20260506193059 | 72 | 285 | 1.7 | 5.2 | 0.00 | 0.00 | 0.00 | 53 | 1017.4 |
| 20260506192137 | 72 | 315 | 1.7 | 2.6 | 0.00 | 0.00 | 0.00 | 55 | 1017.4 |
| 20260506191556 | 70 | 0 | 1.7 | 8.7 | 0.00 | 0.00 | 0.00 | 53 | 1017.5 |
| 20260506191114 | 72 | 219 | 2.6 | 7.8 | 0.00 | 0.00 | 0.00 | 53 | 1017.6 |
| 20260506190122 | 72 | 0 | 1.7 | 5.2 | 0.00 | 0.00 | 0.00 | 52 | 1017.7 |
| 20260506190058 | 72 | 279 | 2.6 | 6.1 | 0.00 | 0.00 | 0.00 | 54 | 1017.7 |
| 20260506185059 | 71 | 0 | 1.7 | 5.2 | 0.00 | 0.00 | 0.00 | 53 | 1017.8 |
| 20260506184558 | 69 | 340 | 1.7 | 6.1 | 0.00 | 0.00 | 0.00 | 56 | 1017.8 |
| 20260506184053 | 70 | 298 | 0.9 | 5.2 | 0.00 | 0.00 | 0.00 | 55 | 1017.9 |
| 20260506183058 | 70 | 72 | 0.9 | 3.5 | 0.00 | 0.00 | 0.00 | 54 | 1018.0 |
| 20260506181944 | 68 | 286 | 1.7 | 3.5 | 0.00 | 0.00 | 0.00 | 55 | 1018.0 |
| 20260506181559 | 69 | 288 | 1.7 | 7.0 | 0.00 | 0.00 | 0.00 | 56 | 1018.2 |
| 20260506180916 | 69 | 273 | 2.6 | 5.2 | 0.00 | 0.00 | 0.00 | 56 | 1018.1 |
| 20260506180105 | 68 | 275 | 1.7 | 7.0 | 0.00 | 0.00 | 0.00 | 59 | 1018.4 |
| 20260506174759 | 69 | 0 | 0.9 | 4.3 | 0.00 | 0.00 | 0.00 | 58 | 1018.4 |
| 20260506174558 | 68 | 360 | 0.0 | 6.1 | 0.00 | 0.00 | 0.00 | 58 | 1018.5 |
| 20260506173725 | 67 | 321 | 0.9 | 4.3 | 0.00 | 0.00 | 0.00 | 59 | 1018.4 |
| 20260506173123 | 66 | 287 | 0.0 | 4.3 | 0.00 | 0.00 | 0.00 | 62 | 1018.5 |
| 20260506171635 | 64 | 184 | 0.9 | 6.1 | 0.00 | 0.00 | 0.00 | 65 | 1018.5 |
| 20260506171603 | 63 | 184 | 1.7 | 7.0 | 0.00 | 0.00 | 0.00 | 65 | 1018.5 |
| 20260506170619 | 63 | 15 | 0.9 | 2.6 | 0.00 | 0.00 | 0.00 | 63 | 1018.6 |
| 20260506170059 | 62 | 57 | 1.7 | 3.5 | 0.00 | 0.00 | 0.00 | 64 | 1018.7 |
| 20260506165640 | 62 | 56 | 0.9 | 2.6 | 0.00 | 0.00 | 0.00 | 64 | 1018.7 |
| 20260506164629 | 64 | 202 | 0.9 | 2.6 | 0.00 | 0.00 | 0.00 | 64 | 1018.6 |
| 20260506164558 | 63 | 205 | 0.9 | 3.5 | 0.00 | 0.00 | 0.00 | 65 | 1018.6 |
| 20260506163617 | 62 | 211 | 0.9 | 1.7 | 0.00 | 0.00 | 0.00 | 67 | 1018.7 |
| 20260506163109 | 60 | 0 | 0.9 | 4.3 | 0.00 | 0.00 | 0.00 | 68 | 1018.7 |
| 20260506162603 | 61 | 179 | 0.9 | 4.3 | 0.00 | 0.00 | 0.00 | 71 | 1018.7 |
| 20260506161559 | 60 | 143 | 0.0 | 5.2 | 0.00 | 0.00 | 0.00 | 73 | 1018.7 |
| 20260506161539 | 61 | 143 | 0.9 | 4.3 | 0.00 | 0.00 | 0.00 | 73 | 1018.7 |
| 20260506160508 | 61 | 165 | 0.0 | 0.9 | 0.00 | 0.00 | 0.00 | 74 | 1018.7 |
| 20260506160108 | 59 | 0 | 0.0 | 3.5 | 0.00 | 0.00 | 0.00 | 75 | 1018.7 |
| 20260506155527 | 59 | 184 | 0.9 | 2.6 | 0.00 | 0.00 | 0.00 | 76 | 1018.7 |
| 20260506154600 | 58 | 192 | 0.9 | 2.6 | 0.00 | 0.00 | 0.00 | 77 | 1018.7 |
| 20260506154522 | 58 | 192 | 0.0 | 0.9 | 0.00 | 0.00 | 0.00 | 77 | 1018.8 |
| 20260506153534 | 58 | 189 | 0.0 | 0.0 | 0.00 | 0.00 | 0.00 | 78 | 1018.8 |
| 20260506153103 | 57 | 0 | 0.0 | 0.0 | 0.00 | 0.00 | 0.00 | 79 | 1018.8 |
| 20260506152543 | 57 | 189 | 0.0 | 0.0 | 0.00 | 0.00 | 0.00 | 80 | 1018.8 |
| 20260506151558 | 56 | 190 | 0.0 | 3.5 | 0.00 | 0.00 | 0.00 | 80 | 1018.8 |
| 20260506150438 | 56 | 192 | 0.0 | 0.0 | 0.00 | 0.00 | 0.00 | 83 | 1018.8 |
| 20260506150104 | 56 | 0 | 0.0 | 1.7 | 0.00 | 0.00 | 0.00 | 83 | 1018.8 |
| 20260506144601 | 54 | 0 | 0.0 | 1.7 | 0.00 | 0.00 | 0.00 | 87 | 1018.8 |
| 20260506144308 | 55 | 192 | 0.0 | 0.9 | 0.00 | 0.00 | 0.00 | 88 | 1018.8 |
| 20260506143311 | 53 | 279 | 0.0 | 0.0 | 0.00 | 0.00 | 0.00 | 89 | 1018.8 |
| 20260506143058 | 53 | 0 | 0.0 | 0.0 | 0.00 | 0.00 | 0.00 | 89 | 1018.7 |
| 20260506142254 | 53 | 279 | 0.0 | 0.0 | 0.00 | 0.00 | 0.00 | 90 | 1018.6 |
| 20260506141559 | 53 | 0 | 0.0 | 0.0 | 0.00 | 0.00 | 0.00 | 91 | 1018.7 |
| 20260506141317 | 53 | 279 | 0.0 | 0.0 | 0.00 | 0.00 | 0.00 | 91 | 1018.7 |
| 20260506140246 | 52 | 279 | 0.0 | 0.0 | 0.00 | 0.00 | 0.00 | 91 | 1018.6 |
| 20260506140100 | 52 | 0 | 0.0 | 0.0 | 0.00 | 0.00 | 0.00 | 91 | 1018.7 |
| 20260506135245 | 52 | 279 | 0.0 | 0.0 | 0.00 | 0.00 | 0.00 | 91 | 1018.6 |
| 20260506134618 | 51 | 0 | 0.0 | 0.0 | 0.00 | 0.00 | 0.00 | 92 | 1018.5 |
| 20260506134234 | 51 | 279 | 0.0 | 0.0 | 0.00 | 0.00 | 0.00 | 91 | 1018.5 |
| 20260506133251 | 50 | 279 | 0.0 | 0.0 | 0.00 | 0.00 | 0.00 | 91 | 1018.4 |
| 20260506133059 | 50 | 0 | 0.0 | 0.0 | 0.00 | 0.00 | 0.00 | 91 | 1018.3 |
| 20260506131612 | 49 | 0 | 0.0 | 0.0 | 0.00 | 0.00 | 0.00 | 91 | 1018.1 |
| 20260506131048 | 49 | 279 | 0.0 | 0.0 | 0.00 | 0.00 | 0.00 | 91 | 1018.0 |
| 20260506130057 | 49 | 0 | 0.0 | 0.0 | 0.00 | 0.00 | 0.00 | 91 | 1018.0 |
| 20260506130032 | 49 | 279 | 0.0 | 0.0 | 0.00 | 0.00 | 0.00 | 91 | 1017.9 |
| 20260506125053 | 49 | 279 | 0.0 | 0.0 | 0.00 | 0.00 | 0.00 | 91 | 1017.8 |
| 20260506124557 | 49 | 0 | 0.0 | 0.0 | 0.00 | 0.01 | 0.00 | 91 | 1017.9 |
| 20260506124029 | 49 | 279 | 0.0 | 0.0 | 0.00 | 0.00 | 0.00 | 91 | 1017.9 |
| 20260506123058 | 49 | 0 | 0.0 | 0.0 | 0.00 | 0.01 | 0.00 | 91 | 1017.8 |
| 20260506123030 | 50 | 279 | 0.0 | 0.0 | 0.00 | 0.00 | 0.00 | 90 | 1017.8 |
| 20260506122008 | 50 | 279 | 0.0 | 0.0 | 0.00 | 0.00 | 0.00 | 91 | 1017.7 |
| 20260506121607 | 49 | 0 | 0.0 | 0.0 | 0.00 | 0.01 | 0.00 | 90 | 1017.7 |
| 20260506115925 | 50 | 279 | 0.0 | 0.0 | 0.00 | 0.01 | 0.00 | 90 | 1017.5 |
| 20260506114938 | 50 | 279 | 0.0 | 0.0 | 0.00 | 0.01 | 0.00 | 90 | 1017.4 |
| 20260506114558 | 50 | 0 | 0.0 | 0.0 | 0.00 | 0.03 | 0.00 | 90 | 1017.5 |
| 20260506113953 | 50 | 279 | 0.0 | 0.0 | 0.00 | 0.01 | 0.00 | 90 | 1017.5 |
| 20260506113057 | 50 | 0 | 0.0 | 0.0 | 0.00 | 0.03 | 0.00 | 90 | 1017.5 |
| 20260506113011 | 50 | 279 | 0.0 | 0.0 | 0.00 | 0.01 | 0.00 | 90 | 1017.5 |
| 20260506112008 | 51 | 279 | 0.0 | 0.0 | 0.00 | 0.01 | 0.00 | 90 | 1017.5 |
| 20260506111618 | 50 | 0 | 0.0 | 0.0 | 0.00 | 0.03 | 0.00 | 90 | 1017.5 |
| 20260506111027 | 51 | 279 | 0.0 | 0.0 | 0.00 | 0.02 | 0.00 | 90 | 1017.4 |
| 20260506110059 | 51 | 0 | 0.0 | 0.0 | 0.00 | 0.03 | 0.00 | 89 | 1017.3 |
| 20260506105952 | 51 | 279 | 0.0 | 0.0 | 0.00 | 0.03 | 0.00 | 90 | 1017.4 |
| 20260506104920 | 51 | 279 | 0.0 | 0.0 | 0.00 | 0.04 | 0.00 | 89 | 1017.4 |
| 20260506104605 | 51 | 0 | 0.0 | 0.0 | 0.00 | 0.15 | 0.00 | 89 | 1017.4 |
| 20260506103915 | 52 | 279 | 0.0 | 0.0 | 0.00 | 0.05 | 0.00 | 89 | 1017.4 |
| 20260506103106 | 51 | 0 | 0.0 | 0.0 | 0.00 | 0.15 | 0.00 | 88 | 1017.5 |
| 20260506102907 | 52 | 279 | 0.0 | 0.0 | 0.00 | 0.07 | 0.00 | 88 | 1017.5 |
| 20260506101857 | 52 | 279 | 0.0 | 0.0 | 0.00 | 0.11 | 0.00 | 88 | 1017.4 |
| 20260506101559 | 52 | 0 | 0.0 | 0.0 | 0.00 | 0.15 | 0.00 | 89 | 1017.4 |
| 20260506100833 | 52 | 279 | 0.0 | 0.0 | 0.00 | 0.15 | 0.00 | 88 | 1017.4 |
| 20260506100103 | 52 | 0 | 0.0 | 1.7 | 0.00 | 0.15 | 0.00 | 88 | 1017.4 |
| 20260506095837 | 53 | 279 | 0.0 | 0.0 | 0.00 | 0.15 | 0.00 | 88 | 1017.5 |
| 20260506094600 | 52 | 0 | 0.0 | 0.0 | 0.00 | 0.16 | 0.00 | 88 | 1017.4 |
| 20260506093710 | 53 | 279 | 0.0 | 0.0 | 0.00 | 0.16 | 0.00 | 87 | 1017.4 |
| 20260506093101 | 52 | 0 | 0.0 | 0.9 | 0.00 | 0.16 | 0.00 | 87 | 1017.5 |
| 20260506091558 | 53 | 279 | 0.0 | 1.7 | 0.00 | 0.16 | 0.00 | 87 | 1017.5 |
| 20260506091551 | 53 | 279 | 0.0 | 0.0 | 0.00 | 0.16 | 0.00 | 87 | 1017.5 |
| 20260506090524 | 53 | 279 | 0.0 | 0.9 | 0.00 | 0.16 | 0.00 | 86 | 1017.5 |
| 20260506090057 | 53 | 279 | 0.0 | 1.7 | 0.00 | 0.16 | 0.00 | 86 | 1017.6 |
| 20260506085450 | 53 | 279 | 0.0 | 0.0 | 0.00 | 0.16 | 0.00 | 86 | 1017.6 |
| 20260506084607 | 53 | 0 | 0.0 | 2.6 | 0.00 | 0.16 | 0.00 | 85 | 1017.6 |
| 20260506084456 | 54 | 279 | 0.0 | 0.0 | 0.00 | 0.16 | 0.00 | 86 | 1017.6 |
| 20260506083442 | 54 | 279 | 0.0 | 1.7 | 0.00 | 0.16 | 0.00 | 85 | 1017.8 |
| 20260506083121 | 53 | 276 | 0.0 | 2.6 | 0.00 | 0.16 | 0.00 | 85 | 1017.8 |
| 20260506082450 | 54 | 276 | 0.9 | 1.7 | 0.00 | 0.16 | 0.00 | 85 | 1017.9 |
| 20260506081604 | 53 | 0 | 0.9 | 2.6 | 0.00 | 0.16 | 0.00 | 84 | 1018.0 |
| 20260506081449 | 54 | 276 | 0.0 | 1.7 | 0.00 | 0.16 | 0.00 | 84 | 1017.9 |
| 20260506080511 | 54 | 277 | 0.0 | 0.9 | 0.00 | 0.16 | 0.00 | 83 | 1017.9 |
| 20260506080104 | 54 | 0 | 0.0 | 5.2 | 0.00 | 0.16 | 0.00 | 83 | 1018.1 |
| 20260506073517 | 55 | 274 | 0.0 | 0.9 | 0.00 | 0.16 | 0.00 | 81 | 1017.9 |
| 20260506073057 | 55 | 0 | 0.9 | 2.6 | 0.00 | 0.16 | 0.00 | 80 | 1017.9 |
| 20260506071558 | 55 | 274 | 0.9 | 5.2 | 0.00 | 0.16 | 0.00 | 80 | 1017.9 |
| 20260506071420 | 55 | 274 | 0.0 | 2.6 | 0.00 | 0.16 | 0.00 | 80 | 1017.9 |
| 20260506070438 | 55 | 0 | 0.9 | 3.5 | 0.00 | 0.16 | 0.00 | 79 | 1017.8 |
| 20260506070121 | 55 | 360 | 0.0 | 4.3 | 0.00 | 0.16 | 0.00 | 79 | 1017.8 |
| 20260506062331 | 56 | 277 | 0.9 | 3.5 | 0.00 | 0.16 | 0.16 | 76 | 1017.3 |
| 20260506061557 | 56 | 277 | 1.7 | 4.3 | 0.00 | 0.16 | 0.16 | 76 | 1017.3 |
| 20260506061346 | 57 | 274 | 1.7 | 4.3 | 0.00 | 0.16 | 0.16 | 76 | 1017.2 |
| 20260506060318 | 57 | 0 | 1.7 | 4.3 | 0.00 | 0.16 | 0.16 | 76 | 1017.1 |
| 20260506051016 | 58 | 0 | 2.6 | 5.2 | 0.00 | 0.16 | 0.16 | 74 | 1017.0 |
| 20260506050108 | 57 | 360 | 1.7 | 5.2 | 0.00 | 0.16 | 0.16 | 73 | 1016.9 |
| 20260506045006 | 58 | 277 | 1.7 | 3.5 | 0.00 | 0.16 | 0.16 | 73 | 1016.7 |
| 20260506044558 | 57 | 360 | 0.9 | 5.2 | 0.00 | 0.16 | 0.16 | 72 | 1016.6 |
| 20260506043059 | 58 | 209 | 0.9 | 4.3 | 0.00 | 0.16 | 0.16 | 71 | 1016.5 |
| 20260506042901 | 58 | 204 | 1.7 | 4.3 | 0.00 | 0.16 | 0.16 | 70 | 1016.5 |
| 20260506041906 | 59 | 184 | 1.7 | 6.1 | 0.00 | 0.16 | 0.16 | 69 | 1016.3 |
| 20260506041603 | 58 | 214 | 0.9 | 5.2 | 0.00 | 0.16 | 0.16 | 68 | 1016.2 |